When you browse on this site, cookies collect data to enhance your experience and personalize the content and advertising you see.
Visit our Privacy Policy to learn more. By continuing to use the site, you agree to this use of cookies and data.
  • In Deutschland
  • Länderverzeichnis
  • Für 7 Tage
  • Wassertemperatur
  • Wetterkarte
  • Widgets
  • user-avatar
    Anmelden

    Stündliche Wetter Goldene Küste

    Heute, 7 Dezember, Samstag

    Zeit Temperatur Niederschläge Wind Luftdruck Luftfeuchtigkeit
    00:00 +22°C° 0 mm 3 m/S 752 mmHg 76%
    01:00 +22°C° 0 mm 3 m/S 752 mmHg 77%
    02:00 +23°C° 0 mm 2 m/S 752 mmHg 72%
    03:00 +23°C° 0 mm 2 m/S 752 mmHg 68%
    04:00 +23°C° 0 mm 2 m/S 752 mmHg 62%
    05:00 +25°C° 0 mm 1 m/S 753 mmHg 52%
    06:00 +28°C° 0 mm 1 m/S 753 mmHg 42%
    07:00 +31°C° 0 mm 1 m/S 754 mmHg 32%
    08:00 +33°C° 0 mm 1 m/S 754 mmHg 27%
    09:00 +36°C° 0 mm 2 m/S 753 mmHg 23%
    10:00 +38°C° 0 mm 3 m/S 753 mmHg 18%
    11:00 +37°C° 0 mm 3 m/S 753 mmHg 22%
    12:00 +36°C° 0 mm 4 m/S 753 mmHg 25%
    13:00 +35°C° 0 mm 5 m/S 753 mmHg 28%
    14:00 +34°C° 0 mm 5 m/S 752 mmHg 35%
    15:00 +32°C° 0 mm 5 m/S 752 mmHg 42%
    16:00 +30°C° 0 mm 4 m/S 752 mmHg 49%
    17:00 +28°C° 0 mm 4 m/S 753 mmHg 59%
    18:00 +26°C° 0 mm 4 m/S 754 mmHg 68%
    19:00 +23°C° 0 mm 4 m/S 755 mmHg 78%
    20:00 +23°C° 0 mm 4 m/S 756 mmHg 81%
    21:00 +22°C° 0 mm 4 m/S 756 mmHg 84%
    22:00 +21°C° 0 mm 5 m/S 757 mmHg 85%
    23:00 +21°C° 0 mm 4 m/S 757 mmHg 86%

    Morgen, 8 Dezember, Sonntag

    Zeit Temperatur Niederschläge Wind Luftdruck Luftfeuchtigkeit
    00:00 +20°C° 0 mm 4 m/S 756 mmHg 88%
    01:00 +19°C° 0 mm 3 m/S 756 mmHg 90%
    02:00 +19°C° 0 mm 3 m/S 756 mmHg 91%
    03:00 +19°C° 0 mm 3 m/S 756 mmHg 92%
    04:00 +19°C° 0 mm 4 m/S 756 mmHg 93%
    05:00 +21°C° 0 mm 4 m/S 757 mmHg 86%
    06:00 +22°C° 0 mm 5 m/S 758 mmHg 78%
    07:00 +25°C° 0 mm 5 m/S 759 mmHg 71%
    08:00 +26°C° 0 mm 5 m/S 759 mmHg 65%
    09:00 +28°C° 0 mm 5 m/S 759 mmHg 59%
    10:00 +29°C° 0 mm 5 m/S 759 mmHg 53%
    11:00 +30°C° 0 mm 5 m/S 758 mmHg 51%
    12:00 +32°C° 0 mm 5 m/S 758 mmHg 49%
    13:00 +33°C° 0 mm 6 m/S 758 mmHg 47%
    14:00 +32°C° 0 mm 6 m/S 758 mmHg 51%
    15:00 +29°C° 0 mm 6 m/S 757 mmHg 56%
    16:00 +28°C° 0 mm 7 m/S 757 mmHg 60%
    17:00 +26°C° 0 mm 6 m/S 758 mmHg 68%
    18:00 +25°C° 0 mm 5 m/S 759 mmHg 75%
    19:00 +22°C° 0 mm 5 m/S 760 mmHg 82%
    20:00 +22°C° 0 mm 4 m/S 760 mmHg 84%
    21:00 +22°C° 0 mm 4 m/S 761 mmHg 86%
    22:00 +22°C° 0 mm 4 m/S 761 mmHg 87%
    23:00 +22°C° 0.2 mm 4 m/S 761 mmHg 88%

    übermorgen, 9 Dezember, Montag

    Zeit Temperatur Niederschläge Wind Luftdruck Luftfeuchtigkeit
    00:00 +22°C° 0.2 mm 4 m/S 761 mmHg 89%
    01:00 +22°C° 0.2 mm 3 m/S 760 mmHg 90%
    02:00 +22°C° 0.1 mm 4 m/S 761 mmHg 90%
    03:00 +21°C° 0.1 mm 4 m/S 761 mmHg 90%
    04:00 +21°C° 0.1 mm 4 m/S 761 mmHg 90%
    05:00 +22°C° 0.1 mm 4 m/S 761 mmHg 86%
    06:00 +23°C° 0.1 mm 4 m/S 761 mmHg 83%
    07:00 +25°C° 0.1 mm 4 m/S 762 mmHg 79%
    08:00 +27°C° 0.1 mm 4 m/S 762 mmHg 73%
    09:00 +28°C° 0.1 mm 5 m/S 762 mmHg 68%
    10:00 +29°C° 0.1 mm 5 m/S 762 mmHg 62%
    11:00 +29°C° 0 mm 5 m/S 761 mmHg 62%
    12:00 +29°C° 0 mm 5 m/S 761 mmHg 62%
    13:00 +29°C° 0 mm 5 m/S 760 mmHg 62%
    14:00 +29°C° 0 mm 5 m/S 760 mmHg 66%
    15:00 +28°C° 0 mm 5 m/S 760 mmHg 70%
    16:00 +27°C° 0 mm 5 m/S 759 mmHg 73%
    17:00 +26°C° 0 mm 4 m/S 760 mmHg 79%
    18:00 +25°C° 0 mm 4 m/S 760 mmHg 85%
    19:00 +24°C° 0 mm 3 m/S 760 mmHg 92%
    20:00 +24°C° 0 mm 3 m/S 760 mmHg 93%
    21:00 +24°C° 0 mm 3 m/S 761 mmHg 94%
    22:00 +24°C° 0 mm 3 m/S 761 mmHg 95%
    23:00 +24°C° 0.1 mm 2 m/S 760 mmHg 95%

    10 Dezember, Dienstag

    Zeit Temperatur Niederschläge Wind Luftdruck Luftfeuchtigkeit
    00:00 +24°C° 0.1 mm 2 m/S 760 mmHg 95%
    01:00 +24°C° 0.1 mm 2 m/S 759 mmHg 95%
    02:00 +24°C° 0.1 mm 2 m/S 759 mmHg 96%
    03:00 +24°C° 0.1 mm 2 m/S 759 mmHg 96%
    04:00 +23°C° 0.1 mm 2 m/S 759 mmHg 97%
    05:00 +24°C° 0.1 mm 2 m/S 759 mmHg 94%
    06:00 +25°C° 0.1 mm 2 m/S 759 mmHg 90%
    07:00 +26°C° 0.1 mm 2 m/S 759 mmHg 86%
    08:00 +28°C° 0.1 mm 3 m/S 759 mmHg 79%
    09:00 +29°C° 0.1 mm 3 m/S 759 mmHg 72%
    10:00 +30°C° 0.1 mm 3 m/S 759 mmHg 65%
    11:00 +32°C° 0 mm 4 m/S 758 mmHg 60%
    12:00 +33°C° 0 mm 4 m/S 757 mmHg 56%
    13:00 +35°C° 0 mm 5 m/S 756 mmHg 51%
    14:00 +33°C° 0 mm 5 m/S 756 mmHg 56%
    15:00 +32°C° 0 mm 5 m/S 756 mmHg 60%
    16:00 +30°C° 0 mm 5 m/S 755 mmHg 64%
    17:00 +28°C° 0 mm 5 m/S 756 mmHg 72%
    18:00 +27°C° 0 mm 4 m/S 756 mmHg 80%
    19:00 +25°C° 0 mm 4 m/S 756 mmHg 88%
    20:00 +25°C° 0 mm 4 m/S 757 mmHg 90%
    21:00 +24°C° 0 mm 3 m/S 757 mmHg 92%
    22:00 +24°C° 0 mm 3 m/S 758 mmHg 94%
    23:00 +24°C° 0 mm 3 m/S 757 mmHg 94%

    11 Dezember, Mittwoch

    Zeit Temperatur Niederschläge Wind Luftdruck Luftfeuchtigkeit
    00:00 +24°C° 0 mm 3 m/S 756 mmHg 95%
    01:00 +24°C° 0 mm 3 m/S 756 mmHg 95%
    02:00 +24°C° 0 mm 3 m/S 756 mmHg 95%
    03:00 +24°C° 0 mm 3 m/S 755 mmHg 94%
    04:00 +24°C° 0 mm 3 m/S 755 mmHg 94%
    05:00 +25°C° 0 mm 3 m/S 756 mmHg 88%
    06:00 +26°C° 0 mm 3 m/S 756 mmHg 83%
    07:00 +27°C° 0 mm 3 m/S 757 mmHg 78%
    08:00 +29°C° 0 mm 3 m/S 757 mmHg 68%
    09:00 +31°C° 0 mm 3 m/S 756 mmHg 58%
    10:00 +35°C° 0 mm 4 m/S 756 mmHg 48%
    11:00 +35°C° 0 mm 4 m/S 756 mmHg 46%
    12:00 +36°C° 0 mm 5 m/S 755 mmHg 45%
    13:00 +36°C° 0 mm 6 m/S 754 mmHg 43%
    14:00 +34°C° 0 mm 5 m/S 754 mmHg 51%
    15:00 +32°C° 0 mm 5 m/S 754 mmHg 59%
    16:00 +30°C° 0 mm 4 m/S 754 mmHg 67%
    17:00 +28°C° 0 mm 4 m/S 755 mmHg 74%
    18:00 +27°C° 0 mm 3 m/S 755 mmHg 81%
    19:00 +25°C° 0 mm 3 m/S 756 mmHg 88%
    20:00 +25°C° 0.1 mm 2 m/S 757 mmHg 89%
    21:00 +25°C° 0.1 mm 2 m/S 757 mmHg 89%
    22:00 +25°C° 0.1 mm 1 m/S 757 mmHg 90%
    23:00 +24°C° 0.1 mm 3 m/S 756 mmHg 91%

    12 Dezember, Donnerstag

    Zeit Temperatur Niederschläge Wind Luftdruck Luftfeuchtigkeit
    00:00 +23°C° 0.1 mm 5 m/S 755 mmHg 92%
    01:00 +22°C° 0.1 mm 6 m/S 755 mmHg 94%
    02:00 +23°C° 0 mm 5 m/S 754 mmHg 93%
    03:00 +23°C° 0 mm 4 m/S 754 mmHg 92%
    04:00 +24°C° 0 mm 3 m/S 754 mmHg 91%
    05:00 +24°C° 0 mm 3 m/S 755 mmHg 86%
    06:00 +25°C° 0 mm 3 m/S 755 mmHg 82%
    07:00 +26°C° 0 mm 3 m/S 756 mmHg 77%
    08:00 +28°C° 0 mm 4 m/S 756 mmHg 67%
    09:00 +30°C° 0 mm 4 m/S 755 mmHg 57%
    10:00 +33°C° 0 mm 5 m/S 755 mmHg 47%
    11:00 +34°C° 0 mm 5 m/S 755 mmHg 46%
    12:00 +34°C° 0 mm 5 m/S 754 mmHg 44%
    13:00 +35°C° 0 mm 6 m/S 753 mmHg 43%
    14:00 +33°C° 0 mm 6 m/S 753 mmHg 48%
    15:00 +32°C° 0 mm 6 m/S 752 mmHg 52%
    16:00 +30°C° 0 mm 6 m/S 752 mmHg 57%
    17:00 +28°C° 0.2 mm 5 m/S 752 mmHg 67%
    18:00 +26°C° 0.2 mm 4 m/S 753 mmHg 78%
    19:00 +24°C° 0.2 mm 3 m/S 754 mmHg 88%
    20:00 +22°C° 0 mm 3 m/S 755 mmHg 89%
    21:00 +22°C° 0 mm 3 m/S 755 mmHg 90%
    22:00 +23°C° 0 mm 2 m/S 756 mmHg 91%
    23:00 +23°C° 0 mm 2 m/S 756 mmHg 91%
    Mehr zeigen